SL-12 R/B(2), 18578

Orbit data source: Space-Track

SL-12 R/B(2), 18578 is space debris in GEO originally from a launch on Thu, 26 Nov 1987 UTC launched from the Tyuratam Missile And Space Complex (TTMTR). Debris objects in space refer to the collection of defunct objects orbiting the Earth. Examples of debris include non-operational satellites, rocket bodies, and fragments generated from explosions, collisions, or faulty payload assembly.

Loading next visibility...
Identifier
18578, 1987-096D
Orbit
GEO
Country
Flag of CISCIS
Related business
Manufacturer
NPO Energiya
Mission
Spacecraft
Bus & Motor
BLOK DM, Unknown motor
Mass
2,440 kg wet, 2,440 kg dry
Launch date (UTC)
1987-11-26 (38 years ago)
Launch vehicle
Unknown
Launch site
Tyuratam Missile And Space Complex (TTMTR)
Object type
Payload
Rocket body
Debris
Shape & HBR
Cyl, 3.1 m
Radar Cross Section
23.597 m², Large (>1 m²)

Expand to show TLE details & history
Last TLE update: 1 day ago

TLE from 1 day ago
0 SL-12 R/B(2)
1 18578U 87096D   25346.57109218  .00000108  00000-0  00000-0 0  9991
2 18578  11.0783 327.3782 0023685 245.5734 265.9276  1.00561223136150
Epoch: 2025-12-12T13:42Z
TLE epoch observation values (Epoch: 2025-12-12T13:42:22.364Z)
Latitude
5.31574°
Longitude
-168.05711°
Altitude
35,712.412 km
Speed
3.077 km/s
True Right ascension
07h 56m 11s
True Declination
5° 18' 37"
Sunlit
Object was in daylight at epoch
Visualization orbit readout
Latitude
Unknown
Longitude
Unknown
Altitude
Unknown
Speed
Unknown
Apparent Right ascension
Unknown
Apparent Declination
Unknown
Sunlit
N/A
Visualization observer readout
Local Sidereal Time
13:12:22
Azimuth
Unknown
Elevation
Unknown
Doppler factor
Unknown
Orbital elements
Apogee altitude
35,806.342 km
Perigee altitude
35,606.986 km
Semi-major axis
42,084.801 km
Eccentricity
0.00237
Inclination
11.0783°
RAAN
327.3782°
Arg. of periapsis
245.5734°
True anomaly
265.65693°
Mean anomaly
265.9276°
Eccentric anomaly
265.79226°
Mean motion
0.25139 °/min
Orbital period
1,432.01 mins
BSTAR
0
Loading maneuver chart data...
Computing Atmospheric mass density...
Loading historical data...
Loading historical data...
Loading historical data...
Loading historical data...
Loading historical data...
Loading historical data...
Loading historical data...

Documentation

Showing up to 5 results
|